EUTELSAT QUANTUM

Last updated on Thu Sep 10 2026 00:03:00 GMT+0000 (Coordinated Universal Time)

1 49056U 21069B 26252.59502168 .00000000 00000+0 00000+0 0 9993 2 49056 0.0217 124.3515 0002269 58.6690 67.5341 1.00271250 18777
UTC large
Height (km)
Speed (km/s)
/
Latitude / Longitude
Inclination (degrees)
Orbital Period (minutes)
Azimuth
Elevation
Range (km)
Doppler Factor

Next 0 passes for location: London (51.5072 / 0.1276)

No passes found over London.
EUTELSAT QUANTUM